Regional Weather Roundup
Issued by NWS

Home | Current Version | Previous Version | Graphics & Text | Print | Product List | Glossary On
Versions: 1 2 3 4 5 6 7 8 9 10 11 12 13 14 15 16 17 18 19 20 21 22 23 24 25 26 27 28 29 30 31 32 33 34 35 36 37 38 39 40 41 42 43 44 45 46 47 48 49 50
000
ASUS43 KFSD 260310
RWRSD

WEATHER ROUNDUP FOR SOUTH DAKOTA
NATIONAL WEATHER SERVICE SIOUX FALLS SD
1000 PM CDT WED APR 25 2018

NOTE: "FAIR" INDICATES FEW OR NO CLOUDS BELOW 12,000 FEET WITH NO
SIGNIFICANT WEATHER AND/OR OBSTRUCTIONS TO VISIBILITY.


SDZ001>005-009-010-012>017-260400-
NORTHWEST AND NORTH CENTRAL SOUTH DAKOTA

CITY           SKY/WX    TMP DP  RH WIND       PRES   REMARKS
BUFFALO          N/A     58  28  32 NW25G36   29.87R
FAITH            N/A     55  35  47 N9        29.89R
MOBRIDGE       CLOUDY    52  35  52 SE8       29.81S
$$

SDZ012>016-024>037-041>051-057-063-072>074-260400-
SOUTHWEST AND SOUTH CENTRAL SOUTH DAKOTA

CITY           SKY/WX    TMP DP  RH WIND       PRES   REMARKS
RAPID CTY ARPT CLOUDY    58  30  34 N23       29.91R
PIERRE         CLOUDY    53  31  42 SE9       29.86R
CUSTER         MOCLDY    52  19  27 N10G23    29.98R
ELLSWORTH AFB  CLOUDY    59  32  36 N21       29.92R
PHILIP         CLOUDY    52  32  46 SE5       29.83S
PINE RIDGE     MOCLDY    60  26  27 S13       29.87F
SPEARFISH      FAIR      55  30  38 NW8       30.01R
WINNER         FAIR      54  29  38 S14       29.91S
$$

SDZ004>011-016>023-039-040-260400-
NORTHEAST SOUTH DAKOTA

CITY           SKY/WX    TMP DP  RH WIND       PRES   REMARKS
ABERDEEN       MOCLDY    48  36  63 S8        29.89S
WATERTOWN      CLOUDY    44  35  70 S9        29.93S
BROOKINGS      PTCLDY    48  35  60 S8        29.97S
SISSETON         N/A     49  37  63 SE10      29.88F
$$

SDZ017-020-022-023-036>040-048>070-260400-
SOUTHEAST SOUTH DAKOTA

CITY           SKY/WX    TMP DP  RH WIND       PRES   REMARKS
SIOUX FALLS    CLOUDY    50  30  46 SW5       29.98F
HURON          CLOUDY    51  36  56 S10       29.92F
CHAMBERLAIN    MOCLDY    51  34  53 S9        29.91F
MITCHELL       MOCLDY    50  39  66 S8        29.96S
YANKTON        CLOUDY    51  32  48 S5        29.99F
$$

ABBREVIATIONS USED IN REMARKS
   TC - TEMPERATURE IN CELSIUS
  WCI - WIND CHILL INDEX
   HX - HEAT INDEX
  VSB - VISIBILITY





USA.gov is the U.S. government's official web portal to all federal, state and local government web resources and services.